[[{"header":{"parameterUnit":"m.s-1","parameterCategory":1,"la1":30.2991,"la2":30.254,"lo1":-89.0895,"lo2":-89.0444,"dy":0.0017,"dx":0.0017,"nx":28,"ny":28,"refTime":"2024-04-01T09:00:00:Z","depth":0,"parameterNumber":2,"parameterNumberName":"U-component_of_WINDS"},"data":[0,0,0,0,0,0,0,0,0,0,0,0,0,0,0,0,0,0,0,0,0,0,0,0,0,0,0,0,0,0,0,0,0,0,0,0,0,0,0,0,0,0,0,0,0,0,0,0,0,0,0,0,0,0,0,0,0,0,-2.8746,-2.8746,0,-2.8761,-2.8761,-2.8761,-2.8747,-2.8746,-2.8746,-2.8745,-2.8759,-2.8759,-2.876,0,0,0,0,0,0,0,0,0,0,0,0,0,-2.8704,-2.8705,-2.8746,-2.8746,-2.8747,-2.8761,-2.8761,-2.8761,-2.8747,-2.8746,-2.8746,-2.8745,-2.8758,-2.8759,-2.876,0,0,0,0,0,0,0,0,0,0,0,0,0,-2.8721,-2.8705,-2.8746,-2.8741,-2.8741,-2.8761,-2.8761,-2.8761,-2.8747,-2.8746,-2.8746,-2.8745,-2.8758,-2.8759,-2.8761,-2.8786,0,0,-2.8765,-2.8765,0,0,0,0,0,0,0,0,-2.872,-2.8723,-2.8742,-2.8742,-2.8741,-2.8751,-2.8751,-2.8769,-2.8747,-2.8745,-2.8745,-2.8744,-2.8757,-2.8758,-2.8763,-2.8786,-2.8787,-2.8765,-2.8766,-2.8766,-2.8766,0,0,0,0,0,0,0,-2.8719,-2.8722,-2.8752,-2.8742,-2.8742,-2.8738,-2.8739,-2.8755,-2.8755,-2.8745,-2.8744,-2.8746,-2.8756,-2.8761,-2.8763,-2.8787,-2.8765,-2.8766,-2.8767,-2.8767,-2.8831,-2.8832,0,0,0,0,0,0,-2.8718,-2.8721,-2.8752,-2.8752,-2.8728,-2.8739,-2.8741,-2.8749,-2.8755,-2.8755,-2.8747,-2.8745,-2.876,-2.8761,-2.8763,-2.8792,-2.8766,-2.8767,-2.8768,-2.883,-2.8831,-2.8832,0,0,0,0,0,0,-2.8718,-2.8721,-2.8751,-2.8736,-2.874,-2.8741,-2.875,-2.875,-2.8755,-2.8756,-2.8756,-2.8752,-2.8759,-2.8761,-2.878,-2.8792,-2.8768,-2.8769,-2.8829,-2.883,-2.8831,-2.885,0,0,0,0,0,0,-2.8716,-2.8721,-2.8731,-2.8737,-2.8741,-2.8768,-2.8751,-2.8751,-2.8757,-2.8755,-2.8761,-2.8761,-2.8759,-2.8778,-2.8781,-2.8793,-2.877,-2.8828,-2.8829,-2.8831,-2.8848,-2.8851,-2.8854,0,0,0,0,0,-2.8715,-2.8735,-2.8732,-2.8735,-2.8753,-2.8769,-2.8771,-2.8768,-2.8758,-2.8768,-2.8769,-2.8761,-2.8791,-2.878,-2.8784,-2.8796,-2.8827,-2.8829,-2.8831,-2.8846,-2.8851,-2.8854,0,0,0,0,0,0,-2.873,-2.8736,-2.8732,-2.8755,-2.8761,-2.8766,-2.8778,-2.8773,-2.8782,-2.878,-2.8775,-2.8776,-2.8796,-2.8798,-2.8786,-2.882,-2.8807,-2.881,-2.8818,-2.8822,-2.8825,-2.8823,-2.8771,0,0,0,0,0,-2.8736,-2.8749,-2.8753,-2.8773,-2.8777,-2.8777,-2.8784,-2.8781,-2.8787,-2.879,-2.8792,-2.8798,-2.8809,-2.8816,-2.8826,-2.8849,-2.8849,-2.8859,-2.8863,-2.8865,-2.8867,-2.8878,-2.8883,-2.8839,-2.8839,-2.8838,0,0,-2.8749,-2.8754,-2.8762,-2.8776,-2.8781,-2.8793,-2.8779,-2.8793,-2.8802,-2.8792,-2.8809,-2.8811,-2.8818,-2.8838,-2.8848,-2.8841,-2.888,-2.8868,-2.887,-2.887,-2.8881,-2.8885,-2.8889,-2.884,-2.884,-2.8839,0,0,-2.8777,-2.8783,-2.8799,-2.8805,-2.8813,-2.8813,-2.8817,-2.8823,-2.8824,-2.8841,-2.8834,-2.8844,-2.8863,-2.8867,-2.8872,-2.8903,-2.8896,-2.8907,-2.8923,-2.8934,-2.8938,-2.8941,-2.895,-2.8954,-2.8909,-2.8909,-2.8909,0,-2.8791,-2.881,-2.8808,-2.8823,-2.8829,-2.8821,-2.8837,-2.8843,-2.8853,-2.8857,-2.885,-2.8873,-2.8877,-2.8898,-2.8905,-2.891,-2.8914,-2.8905,-2.8937,-2.894,-2.8943,-2.8952,-2.8956,-2.891,-2.891,-2.891,-2.891,0,-2.8826,-2.884,-2.8852,-2.8863,-2.8871,-2.8886,-2.8886,-2.8894,-2.8891,-2.8892,-2.8909,-2.8914,-2.8924,-2.893,-2.8927,-2.895,-2.8946,-2.8938,-2.8924,-2.8949,-2.8957,-2.896,-2.8912,-2.8912,-2.8911,-2.8911,0,0,-2.8863,-2.8873,-2.8877,-2.8882,-2.889,-2.89,-2.8915,-2.8926,-2.8932,-2.894,-2.8951,-2.8968,-2.8961,-2.8966,-2.8964,-2.8974,-2.8997,-2.8965,-2.8965,-2.8969,-2.9021,-2.9025,-2.903,-2.8993,-2.8994,-2.8994,-2.902,0,-2.889,-2.8916,-2.8915,-2.8939,-2.8951,-2.8944,-2.8957,-2.8963,-2.8965,-2.8974,-2.8976,-2.8987,-2.8978,-2.8981,-2.8991,-2.8992,-2.9007,-2.899,-2.9002,-2.9002,-2.8999,-2.9034,-2.9039,-2.9063,-2.9024,-2.9024,-2.9025,0,-2.8925,-2.8935,-2.896,-2.8966,-2.8971,-2.8982,-2.8992,-2.9002,-2.9009,-2.9009,-2.9015,-2.9012,-2.9026,-2.9014,-2.9032,-2.9021,-2.9026,-2.9028,-2.9029,-2.9028,-2.9013,-2.9033,-2.9071,-2.9074,-2.903,-2.903,-2.9029,0,-2.8947,-2.8966,-2.8983,-2.8988,-2.8996,-2.9004,-2.9008,-2.9014,-2.902,-2.9029,-2.9033,-2.9043,-2.9048,-2.9055,-2.9054,-2.9046,-2.9073,-2.9061,-2.9073,-2.9072,-2.9077,-2.9076,-2.9114,-2.9084,-2.9083,-2.9083,-2.9083,0,-2.8977,-2.8992,-2.8993,-2.9004,-2.902,-2.9019,-2.9036,-2.9039,-2.9044,-2.9054,-2.905,-2.906,-2.9058,-2.9068,-2.9067,-2.9082,-2.9085,-2.9085,-2.9084,-2.9084,-2.9084,-2.9086,-2.9083,-2.9084,-2.9084,-2.9084,-2.9084,0,-2.9003,-2.9005,-2.9023,-2.903,-2.9032,-2.9044,-2.9049,-2.9058,-2.906,-2.9073,-2.9076,-2.9078,-2.9089,-2.909,-2.9102,-2.9102,-2.912,-2.9118,-2.9117,-2.9116,-2.9127,-2.9126,-2.9166,-2.9171,-2.9139,-2.9139,-2.914,0,-2.902,-2.9032,-2.904,-2.9047,-2.9051,-2.9063,-2.9069,-2.9069,-2.9076,-2.9085,-2.9093,-2.9104,-2.9112,-2.913,-2.9133,-2.9142,-2.914,-2.9153,-2.9141,-2.914,-2.9138,-2.9136,-2.9137,-2.9155,-2.9155,-2.9156,-2.9156,0,-2.9051,-2.9051,-2.9061,-2.9072,-2.908,-2.9088,-2.9096,-2.9102,-2.9102,-2.911,-2.9122,-2.9128,-2.9142,-2.9152,-2.9161,-2.9165,-2.916,-2.916,-2.9163,-2.9162,-2.916,-2.916,-2.9122,-2.9159,-2.9158,-2.9158,-2.9158,-2.9158,-2.9072,-2.9082,-2.9089,-2.91,-2.9106,-2.9113,-2.9122,-2.9125,-2.9135,-2.9146,-2.9146,-2.9158,-2.9164,-2.9177,-2.9181,-2.919,-2.9185,-2.919,-2.9191,-2.9191,-2.9192,-2.9161,-2.9192,-2.9192,-2.9192,-2.9192,-2.9192,0,-2.9101,-2.9105,-2.9116,-2.9127,-2.9135,-2.9132,-2.914,-2.9147,-2.9158,-2.9165,-2.9174,-2.9187,-2.9197,-2.9201,-2.9211,-2.9217,-2.9215,-2.922,-2.9218,-2.9219,-2.9196,-2.9192,-2.9221,-2.9221,-2.9221,-2.9221,-2.9221,-2.9221,-2.9116,-2.9132,-2.9134,-2.9152,-2.9157,-2.9169,-2.9174,-2.918,-2.9186,-2.92,-2.9209,-2.9212,-2.9217,-2.9227,-2.9236,-2.9237,-2.924,-2.9245,-2.9245,-2.9223,-2.922,-2.9218,-2.9213,-2.9246,-2.9246,-2.9266,-2.9266,-2.9266]},{"header":{"parameterUnit":"m.s-1","parameterCategory":1,"la1":30.2991,"la2":30.254,"lo1":-89.0895,"lo2":-89.0444,"dy":0.0017,"dx":0.0017,"nx":28,"ny":28,"refTime":"2024-04-01T09:00:00:Z","depth":0,"parameterNumber":3,"parameterNumberName":"V-component_of_WINDS"},"data":[0,0,0,0,0,0,0,0,0,0,0,0,0,0,0,0,0,0,0,0,0,0,0,0,0,0,0,0,0,0,0,0,0,0,0,0,0,0,0,0,0,0,0,0,0,0,0,0,0,0,0,0,0,0,0,0,0,0,4.0156,4.0157,0,4.0232,4.0233,4.0234,4.0237,4.0236,4.0236,4.0235,4.0314,4.0317,4.032,0,0,0,0,0,0,0,0,0,0,0,0,0,4.0016,4.0019,4.0156,4.0157,4.0158,4.0232,4.0233,4.0234,4.0238,4.0236,4.0235,4.0234,4.0313,4.0317,4.032,0,0,0,0,0,0,0,0,0,0,0,0,0,4.0083,4.0019,4.0156,4.0168,4.017,4.0232,4.0233,4.0235,4.0238,4.0236,4.0235,4.0234,4.0312,4.0316,4.0321,4.0376,0,0,4.0334,4.0336,0,0,0,0,0,0,0,0,4.0079,4.0088,4.0165,4.0168,4.017,4.0224,4.0213,4.0282,4.0238,4.0212,4.0235,4.0233,4.0285,4.0292,4.0309,4.0379,4.0383,4.0335,4.0337,4.0339,4.0341,0,0,0,0,0,0,0,4.0075,4.0085,4.0186,4.0167,4.0169,4.0171,4.0179,4.0226,4.0256,4.0214,4.0215,4.0224,4.0286,4.0305,4.0311,4.0384,4.0335,4.0339,4.0341,4.0343,4.0508,4.051,0,0,0,0,0,0,4.0067,4.0081,4.0184,4.0188,4.012,4.0175,4.0184,4.0208,4.0255,4.0261,4.0225,4.0224,4.0298,4.0306,4.0314,4.0385,4.0339,4.0344,4.0346,4.0506,4.0508,4.051,0,0,0,0,0,0,4.0064,4.0076,4.0181,4.0135,4.0148,4.0179,4.0206,4.021,4.0229,4.0263,4.0268,4.0238,4.0297,4.0308,4.0361,4.0388,4.0346,4.035,4.0504,4.0507,4.0509,4.0525,0,0,0,0,0,0,4.006,4.0075,4.0095,4.0135,4.0151,4.0226,4.0207,4.0213,4.0236,4.0236,4.0277,4.0283,4.0297,4.0355,4.0366,4.0393,4.0353,4.0502,4.0506,4.0509,4.0522,4.0527,4.0532,0,0,0,0,0,4.0055,4.0096,4.0096,4.0108,4.0176,4.0227,4.0236,4.0251,4.0238,4.026,4.0283,4.0281,4.0383,4.036,4.0373,4.0401,4.0501,4.0505,4.0508,4.052,4.0526,4.0532,0,0,0,0,0,0,4.0057,4.0101,4.0102,4.0156,4.0188,4.0227,4.0255,4.0257,4.0293,4.0291,4.0309,4.0318,4.0372,4.0392,4.0366,4.046,4.044,4.0447,4.0445,4.0451,4.0456,4.0451,4.0357,0,0,0,0,0,4.0064,4.01,4.0137,4.0182,4.0198,4.0224,4.0246,4.0256,4.0289,4.0302,4.0329,4.0362,4.0402,4.0427,4.0465,4.0525,4.0536,4.0551,4.0556,4.056,4.0566,4.0603,4.0611,4.0523,4.0523,4.0523,0,0,4.0078,4.0107,4.0128,4.0183,4.0208,4.0248,4.0235,4.0275,4.0306,4.0309,4.0362,4.0383,4.0421,4.0479,4.0506,4.0497,4.0593,4.0565,4.0568,4.0572,4.0608,4.0616,4.0624,4.0526,4.0525,4.0525,0,0,4.0125,4.0149,4.019,4.0217,4.0257,4.0274,4.0284,4.0324,4.0338,4.0392,4.0396,4.0433,4.05,4.0528,4.0552,4.0614,4.0615,4.0625,4.0652,4.0688,4.0695,4.0702,4.0727,4.0736,4.0631,4.0631,4.0631,0,4.0137,4.0196,4.0211,4.0254,4.028,4.0285,4.0329,4.0354,4.0404,4.0422,4.0412,4.0499,4.0525,4.0591,4.0607,4.0624,4.0639,4.0621,4.0693,4.0699,4.0706,4.073,4.0739,4.0632,4.0632,4.0632,4.0632,0,4.0212,4.0253,4.0282,4.0332,4.036,4.0403,4.0427,4.0454,4.0462,4.0481,4.0538,4.057,4.0617,4.0633,4.064,4.0702,4.0696,4.0689,4.067,4.0715,4.0739,4.0748,4.0634,4.0633,4.0633,4.0633,0,0,4.026,4.032,4.0331,4.0356,4.0401,4.0434,4.0478,4.0524,4.0549,4.0584,4.0624,4.0682,4.0678,4.0704,4.0715,4.0746,4.0798,4.0736,4.0737,4.0749,4.0873,4.0879,4.089,4.0799,4.0801,4.0802,4.087,0,4.0314,4.0394,4.0411,4.048,4.052,4.0528,4.0567,4.06,4.0621,4.0659,4.0681,4.0723,4.0712,4.0729,4.076,4.0785,4.0823,4.078,4.0839,4.0841,4.0831,4.0901,4.0908,4.097,4.0879,4.0881,4.0882,0,4.0387,4.0426,4.0499,4.0544,4.0561,4.0596,4.0642,4.0677,4.0717,4.073,4.0761,4.077,4.0819,4.0797,4.0867,4.0838,4.0863,4.0879,4.0882,4.089,4.0865,4.0913,4.099,4.1001,4.0896,4.0895,4.0894,0,4.042,4.049,4.0544,4.0564,4.0616,4.0641,4.0664,4.0702,4.073,4.077,4.0789,4.0834,4.086,4.0896,4.0917,4.0899,4.0987,4.0966,4.1001,4.1001,4.1021,4.1019,4.1105,4.1033,4.1033,4.1032,4.1032,0,4.0479,4.0525,4.056,4.0593,4.0646,4.0666,4.0717,4.074,4.0775,4.0815,4.0823,4.086,4.0886,4.0927,4.0944,4.1002,4.1013,4.1026,4.1031,4.1027,4.1026,4.1045,4.1042,4.1035,4.1034,4.1034,4.1033,0,4.0524,4.0549,4.0609,4.0654,4.0667,4.0704,4.0744,4.0778,4.0799,4.0849,4.0862,4.0896,4.0946,4.0971,4.1032,4.1044,4.111,4.1111,4.1097,4.11,4.1134,4.1132,4.1237,4.1254,4.1168,4.1169,4.1169,0,4.0562,4.0597,4.0647,4.0675,4.0699,4.0742,4.0772,4.0794,4.0825,4.0874,4.0903,4.0954,4.0995,4.1075,4.1106,4.1154,4.1157,4.1191,4.1165,4.1161,4.1162,4.116,4.1166,4.1196,4.1197,4.1198,4.1198,0,4.0627,4.0638,4.068,4.0728,4.0763,4.0801,4.0839,4.0861,4.089,4.0924,4.0976,4.1008,4.1072,4.1124,4.1175,4.12,4.1206,4.1206,4.1218,4.1215,4.1207,4.1216,4.1113,4.1204,4.1204,4.1203,4.1203,4.1203,4.0671,4.0705,4.0747,4.0794,4.0825,4.0861,4.0897,4.0924,4.0967,4.1021,4.1032,4.1088,4.113,4.1199,4.1227,4.1272,4.1265,4.128,4.1284,4.1288,4.1292,4.1199,4.1281,4.128,4.128,4.128,4.128,0,4.074,4.0768,4.0811,4.0865,4.0903,4.0905,4.0948,4.098,4.1029,4.1068,4.1109,4.1171,4.1221,4.1257,4.1309,4.1339,4.1343,4.1352,4.1351,4.1358,4.1294,4.128,4.1348,4.1348,4.1348,4.1348,4.1348,4.1348,4.078,4.0838,4.0855,4.0931,4.0958,4.1013,4.1038,4.1073,4.1104,4.1172,4.1215,4.1238,4.1277,4.1332,4.138,4.1389,4.1409,4.1419,4.1429,4.1369,4.1362,4.1355,4.1342,4.1422,4.1423,4.149,4.149,4.1491]}]]